{"data":{"norad_id":68932,"epoch":"2026-05-24T10:57:29.000160Z","epoch_age_seconds":115164,"freshness":"FRESH","line1":"1 68932U 26098P   26144.45658565  .00021382  00000+0  62311-3 0  9995","line2":"2 68932  51.8754 181.9674 0003763  69.3444 290.7945 15.35318592  3703","mean_motion":15.35318592,"eccentricity":0.0003763,"inclination_deg":51.8754,"raan_deg":181.9674,"arg_perigee_deg":69.3444,"mean_anomaly_deg":290.7945,"bstar":0.00062311,"rev_number":370,"period_min":93.791608302233,"perigee_km":457.40117125995,"apogee_km":462.54753386389,"semimajor_km":6838.1113525619,"source":"CELESTRAK","updated_at":"2026-05-25T13:38:08.795169Z"}}